Погода в Кундыше

Россия / Республика Марий Эл     56°24′22″N   48°09′14″E
темп.,
°C
ветер,
м/с
пор.,
м/с
влажн.,
%
обл.,
%
осадки,
мм/ч
давл.,
гПа
погр.,
м
2 декабря, чт
чт200:00−3юз410867 0.0 992540
03:00−4юз4108443 0.0 994599
06:00−4юз4108797 0.0 995725
09:00−3зюз498798 0.3 997908
12:00−3зюз4880100 0.2 999985
15:00−4зюз488092 0.4 1001833
18:00−5зюз41082100 0.0 1003838
21:00−5зюз41079100 0.0 1003830
3 декабря, пт
пт300:00−4юз4976100 0.0 1004818
03:00−4юз497794 0.0 1004593
06:00−4ююз41093100 0.2 1003596
09:00−3ююз4119499 0.5 1004551
12:00−1юз41192100 0.3 1005579
15:00+1юз41298100 1.0 1006692
18:00+1зюз4887100 0.0 1008588
21:00+1ююз3991100 0.1 1009425
4 декабря, сб
сб400:00+1ю41196100 0.0 1009462
03:00+2ю51596100 0.1 1006662
06:00+3ю61694100 0.1 1004790
09:00+3ю71687100 0.1 10021019
12:00+2ююз61497100 2.2 10021108
15:00+1зюз41087100 2.9 1005761
18:00−1юз41185100 0.0 1007699
21:00−2зюз4108585 0.0 1009662
5 декабря, вс
вс500:00−3зюз498793 0.0 1010655
03:00−3зюз498691 0.0 1011716
06:00−4зюз498799 0.0 1011786
09:00−3з488199 0.1 1013924
12:00−3з4880100 0.1 10151120
15:00−5сз4882100 0.3 1018822
18:00−7сз3778100 0.0 1020738
21:00−9сз367144 0.1 1023604
6 декабря, пн
пн600:00−10ссз357348 0.0 1025527
03:00−11ссз357280 0.0 1027524
06:00−13с357285 0.0 1028531
09:00−13ссв347232 0.0 1031486
12:00−12св23686 0.0 1032508
15:00−12всв237310 0.0 1034410
18:00−12в257898 0.0 1035311
21:00−12в378186 0.0 1036307